TimeEDT,TemperatureF,Dew PointF,Humidity,Sea Level PressureIn,VisibilityMPH,Wind Direction,Wind SpeedMPH,Gust SpeedMPH,PrecipitationIn,Events,Conditions,WindDirDegrees,DateUTC
12:53 AM,54.0,51.1,90,30.22,10.0,SW,3.5,-,N/A,,Clear,220,2013-08-24 04:53:00
1:53 AM,50.0,48.0,93,30.23,2.0,Calm,Calm,-,N/A,,Clear,0,2013-08-24 05:53:00
2:03 AM,48.2,48.2,100,30.23,1.5,Calm,Calm,-,N/A,,Clear,0,2013-08-24 06:03:00
2:08 AM,48.2,46.4,93,30.23,4.0,Calm,Calm,-,N/A,,Clear,0,2013-08-24 06:08:00
2:13 AM,48.2,46.4,93,30.23,1.5,Calm,Calm,-,N/A,,Clear,0,2013-08-24 06:13:00
2:20 AM,48.2,46.4,93,30.23,0.2,Calm,Calm,-,N/A,Fog,Fog,0,2013-08-24 06:20:00
2:31 AM,50.0,48.2,94,30.24,1.0,Calm,Calm,-,N/A,,Clear,0,2013-08-24 06:31:00
2:45 AM,48.2,48.2,100,30.24,3.0,Calm,Calm,-,N/A,,Clear,0,2013-08-24 06:45:00
2:53 AM,48.0,46.9,96,30.24,2.0,Calm,Calm,-,N/A,,Clear,0,2013-08-24 06:53:00
3:02 AM,48.2,48.2,100,30.25,5.0,Calm,Calm,-,N/A,,Clear,0,2013-08-24 07:02:00
3:05 AM,48.2,48.2,100,30.25,1.5,Calm,Calm,-,N/A,,Clear,0,2013-08-24 07:05:00
3:32 AM,48.2,46.4,93,30.25,0.2,Calm,Calm,-,N/A,Fog,Fog,0,2013-08-24 07:32:00
3:49 AM,44.6,44.6,100,30.26,1.0,Calm,Calm,-,N/A,,Mist,0,2013-08-24 07:49:00
3:50 AM,44.6,44.6,100,30.26,1.8,Calm,Calm,-,N/A,,Partly Cloudy,0,2013-08-24 07:50:00
3:53 AM,45.0,44.1,97,30.26,1.8,Calm,Calm,-,N/A,,Partly Cloudy,0,2013-08-24 07:53:00
3:58 AM,46.4,44.6,93,30.26,0.8,Calm,Calm,-,N/A,,Clear,0,2013-08-24 07:58:00
4:08 AM,48.2,46.4,93,30.26,2.0,SW,4.6,-,N/A,,Clear,230,2013-08-24 08:08:00
4:16 AM,50.0,48.2,94,30.26,10.0,SW,3.5,-,N/A,,Partly Cloudy,220,2013-08-24 08:16:00
4:32 AM,51.8,50.0,94,30.27,10.0,WSW,3.5,-,N/A,,Mostly Cloudy,250,2013-08-24 08:32:00
4:53 AM,51.1,50.0,96,30.28,4.0,West,4.6,-,N/A,,Overcast,270,2013-08-24 08:53:00
5:00 AM,51.8,50.0,94,30.28,2.0,Calm,Calm,-,N/A,,Overcast,0,2013-08-24 09:00:00
5:08 AM,51.8,51.8,100,30.28,1.0,Variable,3.5,-,N/A,,Overcast,0,2013-08-24 09:08:00
5:16 AM,51.8,51.8,100,30.28,0.5,West,3.5,-,N/A,Fog,Fog,270,2013-08-24 09:16:00
5:21 AM,51.8,51.8,100,30.28,0.2,WSW,3.5,-,N/A,Fog,Fog,240,2013-08-24 09:21:00
5:30 AM,51.8,51.8,100,30.29,0.5,WSW,3.5,-,N/A,Fog,Fog,250,2013-08-24 09:30:00
5:45 AM,51.8,51.8,100,30.29,0.2,West,3.5,-,N/A,Fog,Fog,270,2013-08-24 09:45:00
5:53 AM,51.1,50.0,96,30.29,0.5,Calm,Calm,-,N/A,Fog,Fog,0,2013-08-24 09:53:00
6:23 AM,51.8,51.8,100,30.31,0.2,WNW,3.5,-,N/A,Fog,Fog,300,2013-08-24 10:23:00
6:53 AM,52.0,51.1,97,30.32,0.2,Calm,Calm,-,N/A,Fog,Fog,0,2013-08-24 10:53:00
7:06 AM,51.8,51.8,100,30.32,0.2,West,4.6,-,N/A,Fog,Fog,270,2013-08-24 11:06:00
7:53 AM,53.1,51.1,93,30.34,0.2,SW,4.6,-,N/A,Fog,Fog,230,2013-08-24 11:53:00
8:42 AM,53.6,51.8,94,30.35,0.5,WSW,4.6,-,N/A,Fog,Fog,250,2013-08-24 12:42:00
8:53 AM,53.1,52.0,96,30.35,0.2,Calm,Calm,-,N/A,Fog,Fog,0,2013-08-24 12:53:00
9:02 AM,53.6,53.6,100,30.35,0.5,Calm,Calm,-,N/A,Fog,Fog,0,2013-08-24 13:02:00
9:24 AM,55.4,53.6,94,30.35,2.0,Calm,Calm,-,N/A,,Overcast,0,2013-08-24 13:24:00
9:53 AM,57.0,55.0,93,30.36,4.0,Calm,Calm,-,N/A,,Scattered Clouds,0,2013-08-24 13:53:00
10:53 AM,68.0,54.0,61,30.35,10.0,Calm,Calm,-,N/A,,Scattered Clouds,0,2013-08-24 14:53:00
11:53 AM,71.1,50.0,47,30.35,10.0,WSW,3.5,-,N/A,,Clear,240,2013-08-24 15:53:00
12:53 PM,73.0,51.1,46,30.32,10.0,NE,5.8,-,N/A,,Partly Cloudy,50,2013-08-24 16:53:00
1:53 PM,75.0,50.0,41,30.33,10.0,Variable,6.9,-,N/A,,Clear,0,2013-08-24 17:53:00
2:53 PM,75.0,48.0,38,30.32,10.0,ENE,8.1,-,N/A,,Clear,70,2013-08-24 18:53:00
3:53 PM,77.0,48.0,36,30.31,10.0,Calm,Calm,-,N/A,,Clear,0,2013-08-24 19:53:00
4:53 PM,77.0,46.9,34,30.30,10.0,Calm,Calm,-,N/A,,Clear,0,2013-08-24 20:53:00
5:53 PM,75.9,48.9,38,30.31,10.0,NNE,5.8,-,N/A,,Clear,20,2013-08-24 21:53:00
6:53 PM,73.0,53.1,49,30.31,10.0,NNE,5.8,-,N/A,,Clear,20,2013-08-24 22:53:00
7:53 PM,66.9,52.0,59,30.33,10.0,NE,5.8,-,N/A,,Clear,40,2013-08-24 23:53:00
8:53 PM,57.0,51.1,81,30.35,10.0,North,4.6,-,N/A,,Clear,360,2013-08-25 00:53:00
9:53 PM,57.9,52.0,81,30.36,10.0,Calm,Calm,-,N/A,,Clear,0,2013-08-25 01:53:00
10:53 PM,54.0,51.1,90,30.35,10.0,Calm,Calm,-,N/A,,Clear,0,2013-08-25 02:53:00
11:53 PM,52.0,50.0,93,30.35,10.0,Calm,Calm,-,N/A,,Clear,0,2013-08-25 03:53:00